EN

Hourly Weather Bolshoe Mihalkino

Today, 27 October, Tuesday

Time Temperature Precipitation Wind Pressure Humidity
00:00 +9°C° 0 mm 5 mps 744 mmHg 89%
01:00 +8°C° 0 mm 4 mps 744 mmHg 89%
02:00 +8°C° 0 mm 4 mps 744 mmHg 88%
03:00 +8°C° 0 mm 5 mps 743 mmHg 88%
04:00 +8°C° 0 mm 5 mps 743 mmHg 89%
05:00 +8°C° 0 mm 5 mps 742 mmHg 90%
06:00 +7°C° 0 mm 5 mps 742 mmHg 90%
07:00 +7°C° 0 mm 5 mps 742 mmHg 90%
08:00 +7°C° 0 mm 5 mps 742 mmHg 89%
09:00 +8°C° 0 mm 5 mps 742 mmHg 88%
10:00 +8°C° 0 mm 5 mps 742 mmHg 86%
11:00 +9°C° 0 mm 5 mps 742 mmHg 85%
12:00 +9°C° 0 mm 5 mps 742 mmHg 84%
13:00 +10°C° 0 mm 5 mps 742 mmHg 83%
14:00 +10°C° 0 mm 5 mps 742 mmHg 81%
15:00 +10°C° 0 mm 5 mps 742 mmHg 83%
16:00 +11°C° 0 mm 4 mps 742 mmHg 84%
17:00 +11°C° 0 mm 4 mps 742 mmHg 85%
18:00 +11°C° 0 mm 4 mps 742 mmHg 86%
19:00 +11°C° 0 mm 4 mps 742 mmHg 86%
20:00 +11°C° 0 mm 4 mps 742 mmHg 87%
21:00 +11°C° 0.1 mm 4 mps 742 mmHg 87%
22:00 +11°C° 0.1 mm 4 mps 742 mmHg 88%
23:00 +11°C° 0.1 mm 4 mps 741 mmHg 88%

Tomorrow, 28 October, Wednesday

Time Temperature Precipitation Wind Pressure Humidity
00:00 +9°C° 0 mm 5 mps 743 mmHg 90%
01:00 +9°C° 0 mm 5 mps 742 mmHg 90%
02:00 +9°C° 0 mm 5 mps 742 mmHg 90%
03:00 +9°C° 0 mm 5 mps 742 mmHg 90%
04:00 +9°C° 0 mm 5 mps 742 mmHg 90%
05:00 +9°C° 0 mm 5 mps 742 mmHg 90%
06:00 +9°C° 0 mm 5 mps 742 mmHg 89%
07:00 +9°C° 0 mm 5 mps 742 mmHg 89%
08:00 +10°C° 0 mm 5 mps 743 mmHg 89%
09:00 +11°C° 0.1 mm 4 mps 743 mmHg 89%
10:00 +11°C° 0.1 mm 4 mps 744 mmHg 89%
11:00 +11°C° 0.1 mm 3 mps 744 mmHg 89%
12:00 +11°C° 0.1 mm 3 mps 744 mmHg 89%
13:00 +12°C° 0.1 mm 2 mps 745 mmHg 89%
14:00 +12°C° 0.1 mm 2 mps 745 mmHg 89%
15:00 +12°C° 0 mm 2 mps 745 mmHg 90%
16:00 +12°C° 0 mm 2 mps 745 mmHg 92%
17:00 +10°C° 0 mm 2 mps 745 mmHg 94%
18:00 +10°C° 0 mm 2 mps 745 mmHg 93%
19:00 +10°C° 0 mm 2 mps 745 mmHg 93%
20:00 +10°C° 0 mm 3 mps 745 mmHg 93%
21:00 +10°C° 0 mm 3 mps 745 mmHg 92%
22:00 +10°C° 0 mm 3 mps 745 mmHg 92%
23:00 +10°C° 0 mm 3 mps 745 mmHg 92%

Day after tomorrow, 29 October, Thursday

Time Temperature Precipitation Wind Pressure Humidity
00:00 +10°C° 0 mm 3 mps 745 mmHg 92%
01:00 +10°C° 0 mm 3 mps 745 mmHg 93%
02:00 +10°C° 0 mm 3 mps 744 mmHg 93%
03:00 +10°C° 0 mm 3 mps 744 mmHg 94%
04:00 +10°C° 0 mm 3 mps 744 mmHg 94%
05:00 +10°C° 0 mm 3 mps 744 mmHg 94%
06:00 +10°C° 0 mm 3 mps 744 mmHg 94%
07:00 +10°C° 0 mm 3 mps 744 mmHg 94%
08:00 +10°C° 0 mm 3 mps 744 mmHg 95%
09:00 +10°C° 0 mm 3 mps 744 mmHg 92%
10:00 +11°C° 0 mm 3 mps 744 mmHg 90%
11:00 +11°C° 0 mm 4 mps 744 mmHg 87%
12:00 +11°C° 0.5 mm 3 mps 744 mmHg 89%
13:00 +11°C° 0.5 mm 3 mps 744 mmHg 91%
14:00 +11°C° 0.5 mm 3 mps 743 mmHg 92%
15:00 +11°C° 0.8 mm 3 mps 743 mmHg 93%
16:00 +11°C° 0.8 mm 3 mps 743 mmHg 93%
17:00 +11°C° 0.8 mm 3 mps 743 mmHg 93%
18:00 +10°C° 0.1 mm 3 mps 743 mmHg 92%
19:00 +10°C° 0.1 mm 2 mps 743 mmHg 92%
20:00 +9°C° 0.1 mm 2 mps 743 mmHg 92%
21:00 +9°C° 0 mm 2 mps 743 mmHg 92%
22:00 +9°C° 0 mm 3 mps 743 mmHg 92%
23:00 +9°C° 0 mm 3 mps 743 mmHg 92%

30 October, Friday

Time Temperature Precipitation Wind Pressure Humidity
00:00 +9°C° 0.1 mm 3 mps 743 mmHg 92%
01:00 +9°C° 0.1 mm 3 mps 744 mmHg 91%
02:00 +9°C° 0.1 mm 3 mps 744 mmHg 90%
03:00 +9°C° 0 mm 3 mps 744 mmHg 92%
04:00 +8°C° 0 mm 3 mps 744 mmHg 94%
05:00 +7°C° 0 mm 3 mps 744 mmHg 95%
06:00 +7°C° 0 mm 3 mps 744 mmHg 94%
07:00 +7°C° 0 mm 3 mps 744 mmHg 93%
08:00 +7°C° 0 mm 3 mps 744 mmHg 92%
09:00 +8°C° 0 mm 3 mps 744 mmHg 89%
10:00 +7°C° 0 mm 4 mps 744 mmHg 87%
11:00 +7°C° 0 mm 4 mps 744 mmHg 84%
12:00 +8°C° 0 mm 4 mps 744 mmHg 82%
13:00 +8°C° 0 mm 5 mps 743 mmHg 79%
14:00 +8°C° 0 mm 5 mps 743 mmHg 76%
15:00 +8°C° 0.4 mm 5 mps 743 mmHg 80%
16:00 +8°C° 0.4 mm 6 mps 742 mmHg 83%
17:00 +7°C° 0.4 mm 6 mps 742 mmHg 86%
18:00 +8°C° 0.7 mm 6 mps 742 mmHg 88%
19:00 +8°C° 0.7 mm 6 mps 741 mmHg 89%
20:00 +8°C° 0.7 mm 6 mps 741 mmHg 90%
21:00 +8°C° 0.5 mm 6 mps 741 mmHg 90%
22:00 +9°C° 0.5 mm 5 mps 741 mmHg 90%
23:00 +9°C° 0.5 mm 5 mps 741 mmHg 90%

31 October, Saturday

Time Temperature Precipitation Wind Pressure Humidity
00:00 +10°C° 0.3 mm 5 mps 741 mmHg 91%
01:00 +10°C° 0.3 mm 5 mps 741 mmHg 91%
02:00 +11°C° 0.3 mm 4 mps 741 mmHg 91%
03:00 +11°C° 0.1 mm 4 mps 742 mmHg 91%
04:00 +11°C° 0.1 mm 4 mps 742 mmHg 90%
05:00 +11°C° 0.1 mm 4 mps 742 mmHg 90%
06:00 +11°C° 0.1 mm 4 mps 742 mmHg 90%
07:00 +11°C° 0.1 mm 4 mps 743 mmHg 91%
08:00 +11°C° 0.1 mm 3 mps 743 mmHg 92%

1 November, Sunday

Time Temperature Precipitation Wind Pressure Humidity
Show more